Location: Newark
(48.1281°N, 2.1556°W)
Time: 22:45:58
(UTC+00:00)

Envisat - Pass Details

Date: 24 November 2019
Orbit: 764 x 766 km, 98.1° (Epoch: 06 December)

Event Time Altitude Azimuth Distance (km) Brightness Sun altitude
Rises 19:10:43 0° 202° (SSW) 3,220 6.5 -27.6°
Reaches altitude 10° 19:13:30 10° 218° (SW) 2,299 5.9 -28.1°
Maximum altitude 19:17:25 22° 269° (W) 1,617 5.4 -28.8°
Drops below altitude 10° 19:21:22 10° 320° (NW) 2,312 5.9 -29.4°
Sets 19:24:11 0° 335° (NNW) 3,243 6.6 -29.9°
